Location: Cleveland
(41.4990°N, 81.6960°W)
Time: 23:41:40
(UTC-04:00)

ISS - Pass Details

Date: 29 September 2021
Orbit: 417 x 423 km, 51.6° (Epoch: 20 October)

Event Time Altitude Azimuth Distance (km) Brightness Sun altitude
Rises 20:25:10 0° 309° (NW) 2,365 1.2 -14.6°
Reaches altitude 10° 20:27:39 10° 326° (NNW) 1,500 -0.3 -15.1°
Maximum altitude 20:30:15 20° 17° (NNE) 1,026 -1.9 -15.5°
Enters shadow 20:31:12 18° 41° (NE) 1,103 -1.9 -15.7°
